GW3931 Weather Reports


Display with metric or nautical units.
time (UTC)temp
F
wind
direction
speed
MPH
gust
MPH
rain 1hr
in
rain 24hr
in
rain mn
in
humidity
%
barometer
mb
20260507214752 63 149 0.0 2.0 0.00 0.11 0.11 50 1010.4
20260507214249 63 174 1.0 2.0 0.00 0.11 0.11 51 1010.7
20260507213744 63 127 0.0 4.0 0.00 0.11 0.11 51 1010.5
20260507213242 63 118 0.0 2.0 0.00 0.11 0.11 51 1010.6
20260507212738 64 80 2.0 3.0 0.00 0.11 0.11 50 1010.7
20260507212235 64 241 2.0 2.0 0.00 0.11 0.11 49 1010.8
20260507211731 63 164 1.0 6.0 0.00 0.11 0.11 52 1010.7
20260507211227 63 1 4.0 4.0 0.00 0.11 0.11 51 1010.7
20260507210725 63 128 1.0 4.0 0.00 0.11 0.11 51 1010.6
20260507210221 63 100 2.0 3.0 0.00 0.11 0.11 51 1010.7
20260507205718 63 134 2.0 3.0 0.00 0.11 0.11 51 1010.7
20260507205214 63 219 2.0 4.0 0.00 0.11 0.11 51 1010.7
20260507204711 63 162 0.0 4.0 0.00 0.11 0.11 50 1010.8
20260507204209 63 144 1.0 3.0 0.00 0.11 0.11 50 1010.7
20260507203707 63 65 2.0 4.0 0.00 0.11 0.11 50 1010.8
20260507203204 63 85 2.0 4.0 0.00 0.11 0.11 51 1010.6
20260507202659 63 61 1.0 3.0 0.00 0.11 0.11 52 1010.5
20260507202155 64 146 2.0 6.0 0.00 0.11 0.11 50 1010.6
20260507201650 64 165 1.0 3.0 0.00 0.11 0.11 51 1010.9
20260507201148 64 164 1.0 4.0 0.00 0.11 0.11 46 1010.8
20260507200644 64 164 0.0 2.0 0.00 0.11 0.11 49 1010.9
20260507200140 64 206 0.0 3.0 0.00 0.11 0.11 47 1010.6
20260507195637 64 125 0.0 3.0 0.00 0.11 0.11 49 1010.6
20260507195134 63 109 0.0 3.0 0.00 0.11 0.11 49 1010.7
20260507194631 64 125 1.0 4.0 0.00 0.11 0.11 47 1010.6
20260507194126 64 130 1.0 3.0 0.00 0.11 0.11 47 1010.7
20260507193623 64 119 0.0 2.0 0.00 0.11 0.11 48 1010.9
20260507193121 62 136 1.0 3.0 0.00 0.11 0.11 50 1011.0
20260507192617 62 104 2.0 4.0 0.00 0.11 0.11 51 1011.2
20260507192114 62 286 2.0 7.0 0.00 0.11 0.11 51 1011.5
20260507191609 61 74 0.0 4.0 0.00 0.11 0.11 51 1011.3
20260507191106 62 70 2.0 2.0 0.00 0.11 0.11 50 1011.3
20260507190603 62 160 2.0 3.0 0.00 0.11 0.11 50 1011.5
20260507185600 62 77 2.0 3.0 0.00 0.11 0.11 52 1011.8
20260507185056 61 65 1.0 3.0 0.00 0.11 0.11 51 1011.9
20260507184555 61 9 2.0 3.0 0.00 0.11 0.11 52 1011.4
20260507184052 61 78 2.0 2.0 0.00 0.11 0.11 54 1011.5
20260507183548 61 159 0.0 2.0 0.00 0.11 0.11 54 1011.7
20260507183045 61 60 2.0 3.0 0.00 0.11 0.11 53 1012.1
20260507182542 61 129 1.0 2.0 0.00 0.11 0.11 52 1012.0
20260507182037 61 125 1.0 4.0 0.00 0.11 0.11 52 1012.3
20260507181535 60 130 1.0 2.0 0.00 0.11 0.11 53 1011.8
20260507181031 60 124 1.0 3.0 0.00 0.11 0.11 54 1012.0
20260507180527 60 85 2.0 2.0 0.00 0.11 0.11 53 1012.3
20260507180024 60 135 0.0 2.0 0.00 0.11 0.11 53 1012.2
20260507175520 60 104 0.0 2.0 0.00 0.11 0.11 55 1012.4
20260507175018 61 69 1.0 2.0 0.00 0.11 0.11 52 1012.3
20260507174515 61 129 0.0 3.0 0.00 0.11 0.11 56 1012.2
20260507174013 60 107 0.0 0.0 0.00 0.11 0.11 59 1012.3
20260507173509 59 128 1.0 2.0 0.00 0.11 0.11 59 1012.2
20260507173007 59 106 1.0 1.0 0.00 0.11 0.11 57 1012.9
20260507172503 59 147 0.0 1.0 0.00 0.11 0.11 56 1013.0
20260507172000 59 133 0.0 1.0 0.00 0.11 0.11 57 1013.0
20260507171455 59 105 0.0 0.0 0.00 0.11 0.11 61 1013.1
20260507170953 58 123 0.0 0.0 0.05 0.11 0.11 58 1012.9
20260507170449 59 150 0.0 2.0 0.05 0.11 0.11 55 1013.0
20260507165945 60 143 0.0 2.0 0.00 0.10 0.10 51 1013.3
20260507165442 61 186 1.0 1.0 0.00 0.10 0.10 49 1013.3
20260507164938 61 132 1.0 3.0 0.00 0.10 0.10 48 1013.0
20260507164435 61 141 0.0 2.0 0.00 0.10 0.10 47 1013.2
20260507163931 61 119 1.0 2.0 0.00 0.10 0.10 49 1013.3
20260507163429 60 169 2.0 2.0 0.00 0.10 0.10 50 1013.3
20260507162926 60 151 0.0 2.0 0.00 0.10 0.10 48 1013.3
20260507162421 60 158 0.0 1.0 0.00 0.10 0.10 48 1013.4
20260507161919 61 175 0.0 1.0 0.00 0.10 0.10 46 1013.5
20260507161414 60 150 0.0 0.0 0.00 0.10 0.10 48 1013.7
20260507160912 60 173 0.0 1.0 0.00 0.10 0.10 47 1013.6
20260507160407 60 159 1.0 3.0 0.00 0.10 0.10 48 1013.7
20260507155904 60 148 1.0 1.0 0.00 0.10 0.10 49 1013.6
20260507155359 60 170 0.0 1.0 0.00 0.10 0.10 49 1014.0
20260507154856 60 191 1.0 1.0 0.00 0.10 0.10 48 1013.9
20260507154354 60 190 0.0 0.0 0.00 0.10 0.10 52 1013.9
20260507153851 60 132 1.0 1.0 0.00 0.10 0.10 51 1013.9
20260507153347 59 161 0.0 2.0 0.00 0.10 0.10 48 1014.0
20260507152843 59 155 0.0 1.0 0.00 0.10 0.10 49 1014.1
20260507152340 59 161 0.0 1.0 0.00 0.10 0.10 51 1014.0
20260507151836 59 213 1.0 1.0 0.00 0.10 0.10 49 1013.9
20260507151332 58 250 1.0 1.0 0.00 0.10 0.10 50 1014.0
20260507150830 58 170 0.0 1.0 0.00 0.10 0.10 53 1014.1
20260507150326 57 165 0.0 1.0 0.00 0.10 0.10 52 1014.2
20260507145822 57 168 0.0 1.0 0.00 0.10 0.10 51 1014.2
20260507145319 57 156 0.0 0.0 0.00 0.10 0.10 55 1014.4
20260507144816 57 163 0.0 1.0 0.00 0.10 0.10 59 1014.3
20260507144313 57 166 0.0 1.0 0.00 0.10 0.10 58 1014.4
20260507143809 57 181 1.0 1.0 0.00 0.10 0.10 58 1014.5
20260507143307 57 163 0.0 2.0 0.00 0.10 0.10 57 1014.7
20260507142803 57 158 0.0 1.0 0.00 0.10 0.10 60 1014.7
20260507142259 57 171 0.0 1.0 0.00 0.10 0.10 59 1014.5
20260507141756 57 188 1.0 1.0 0.00 0.10 0.10 60 1014.5
20260507141253 57 159 0.0 0.0 0.00 0.10 0.10 61 1014.4
20260507140749 57 167 0.0 1.0 0.00 0.10 0.10 60 1014.6
20260507140247 57 151 0.0 0.0 0.00 0.10 0.10 62 1014.5
20260507135744 57 158 0.0 0.0 0.00 0.10 0.10 62 1014.5
20260507135241 57 169 0.0 1.0 0.00 0.10 0.10 63 1014.7
20260507134737 57 181 0.0 1.0 0.00 0.10 0.10 62 1014.9
20260507134234 57 188 1.0 2.0 0.00 0.10 0.10 63 1014.7
20260507133730 57 167 0.0 1.0 0.00 0.10 0.10 68 1014.7
20260507133227 57 165 0.0 1.0 0.00 0.10 0.10 68 1014.6
20260507132724 57 164 0.0 0.0 0.00 0.10 0.10 66 1014.7
20260507132221 57 164 0.0 2.0 0.00 0.10 0.10 65 1014.7
20260507131717 57 184 0.0 2.0 0.00 0.10 0.10 63 1014.7
20260507131215 57 160 0.0 1.0 0.00 0.10 0.10 61 1014.7
20260507130711 57 153 1.0 2.0 0.00 0.10 0.10 60 1014.5
20260507130209 57 227 0.0 1.0 0.00 0.10 0.10 60 1014.7
20260507125708 57 133 1.0 1.0 0.00 0.10 0.10 58 1014.5
20260507125205 57 146 1.0 6.0 0.00 0.10 0.10 57 1014.4
20260507124701 57 161 0.0 4.0 0.00 0.10 0.10 58 1014.1
20260507124158 57 154 1.0 3.0 0.00 0.10 0.10 60 1014.6
20260507123657 57 142 0.0 3.0 0.00 0.10 0.10 68 1014.5
20260507123154 57 147 0.0 1.0 0.00 0.10 0.10 68 1014.7
20260507122649 57 157 0.0 0.0 0.00 0.10 0.10 68 1014.9
20260507122145 57 186 1.0 3.0 0.00 0.10 0.10 67 1014.4
20260507121641 57 150 0.0 1.0 0.00 0.10 0.10 68 1014.4
20260507121137 57 173 1.0 3.0 0.00 0.10 0.10 68 1014.5
20260507120633 57 157 0.0 1.0 0.00 0.10 0.10 68 1014.3
20260507120130 58 150 0.0 1.0 0.00 0.10 0.10 67 1014.7
20260507115626 57 148 0.0 0.0 0.00 0.10 0.10 68 1014.3
20260507115122 57 157 0.0 2.0 0.00 0.10 0.10 67 1014.3
20260507114618 57 131 1.0 3.0 0.00 0.10 0.10 66 1014.1
20260507114116 57 181 0.0 1.0 0.00 0.10 0.10 67 1014.0
20260507113613 57 134 0.0 1.0 0.00 0.10 0.10 67 1014.0
20260507113110 57 151 0.0 1.0 0.00 0.10 0.10 69 1014.2
20260507112608 57 149 0.0 1.0 0.00 0.10 0.10 69 1014.0
20260507112104 57 157 0.0 1.0 0.00 0.10 0.10 70 1014.3
20260507111601 57 164 0.0 0.0 0.00 0.10 0.10 71 1014.0
20260507111058 57 168 0.0 2.0 0.00 0.10 0.10 70 1014.1
20260507110554 57 148 0.0 2.0 0.00 0.10 0.10 70 1013.9
20260507110051 57 151 0.0 3.0 0.00 0.10 0.10 70 1013.9
20260507105548 57 149 0.0 2.0 0.00 0.10 0.10 73 1013.9
20260507105044 57 172 1.0 1.0 0.00 0.10 0.10 73 1014.0
20260507104541 57 152 0.0 0.0 0.00 0.10 0.10 75 1013.7
20260507104037 57 169 0.0 1.0 0.00 0.10 0.10 77 1013.8
20260507103534 57 165 0.0 0.0 0.00 0.10 0.10 80 1013.8
20260507103031 57 159 0.0 1.0 0.00 0.10 0.10 79 1013.8
20260507102527 57 150 0.0 2.0 0.00 0.10 0.10 80 1013.7
20260507102023 57 156 1.0 4.0 0.00 0.10 0.10 80 1013.6
20260507101519 57 134 2.0 3.0 0.00 0.10 0.10 81 1013.6
20260507101015 57 159 1.0 3.0 0.00 0.10 0.10 82 1013.4
20260507100513 57 192 4.0 4.0 0.00 0.10 0.10 82 1013.1
20260507100011 57 143 0.0 1.0 0.00 0.10 0.10 83 1013.4
20260507095508 57 157 0.0 1.0 0.00 0.10 0.10 82 1013.4
20260507095005 56 160 0.0 2.0 0.00 0.10 0.10 82 1013.4
20260507094501 57 159 0.0 0.0 0.00 0.10 0.10 83 1013.5
20260507093958 56 165 1.0 3.0 0.00 0.10 0.10 82 1013.7
20260507093456 56 146 1.0 3.0 0.00 0.10 0.10 82 1013.5
20260507092954 56 123 3.0 4.0 0.00 0.10 0.10 82 1013.3
20260507092450 56 176 1.0 3.0 0.00 0.10 0.10 83 1013.1
20260507091947 57 177 2.0 3.0 0.00 0.10 0.10 83 1013.2
20260507091444 57 137 1.0 3.0 0.00 0.10 0.10 83 1013.2
20260507090939 57 182 1.0 3.0 0.00 0.10 0.10 83 1013.4
20260507090435 57 163 2.0 3.0 0.00 0.10 0.10 83 1013.4
20260507085932 57 154 0.0 1.0 0.00 0.10 0.10 85 1013.3
20260507085429 57 170 0.0 1.0 0.00 0.10 0.10 85 1013.4
20260507084927 57 220 2.0 4.0 0.00 0.10 0.10 85 1013.4
20260507084423 57 176 2.0 3.0 0.00 0.10 0.10 86 1013.0
20260507083915 56 156 0.0 0.0 0.00 0.10 0.10 87 1013.0
20260507083411 56 193 1.0 2.0 0.00 0.10 0.10 87 1013.1
20260507082908 56 155 0.0 1.0 0.00 0.10 0.10 89 1013.2
20260507082404 56 156 0.0 0.0 0.00 0.10 0.10 88 1013.1
20260507081901 56 129 0.0 0.0 0.00 0.10 0.10 88 1012.9
20260507081357 56 225 2.0 2.0 0.00 0.10 0.10 88 1012.9
20260507080854 57 187 1.0 2.0 0.00 0.10 0.10 88 1012.8
20260507080350 57 145 0.0 1.0 0.00 0.10 0.10 87 1012.6
20260507075846 57 152 0.0 3.0 0.00 0.10 0.10 85 1012.5
20260507075341 57 212 1.0 2.0 0.00 0.10 0.10 86 1012.7
20260507074838 57 141 2.0 2.0 0.00 0.10 0.10 85 1012.5
20260507074336 57 220 1.0 2.0 0.00 0.10 0.10 85 1012.5
20260507073833 57 222 1.0 7.0 0.00 0.10 0.10 87 1012.5
20260507073329 57 157 0.0 0.0 0.00 0.10 0.10 90 1012.2
20260507072826 58 162 0.0 1.0 0.00 0.10 0.10 91 1012.2
20260507072323 58 157 0.0 0.0 0.00 0.10 0.10 91 1012.1
20260507071821 58 186 1.0 2.0 0.00 0.10 0.10 91 1012.4
20260507071318 58 166 0.0 0.0 0.00 0.10 0.10 92 1012.1
20260507070814 58 159 0.0 1.0 0.00 0.10 0.10 91 1012.1
20260507070312 58 167 0.0 1.0 0.00 0.10 0.10 91 1012.3
20260507065808 58 161 0.0 1.0 0.00 0.10 0.10 91 1012.2
20260507065306 58 150 0.0 0.0 0.00 0.10 0.10 92 1012.2
20260507064802 58 176 1.0 2.0 0.00 0.10 0.10 92 1012.2
20260507064301 58 164 0.0 1.0 0.00 0.10 0.10 92 1012.2
20260507063758 58 153 0.0 0.0 0.00 0.10 0.10 92 1012.1
20260507063255 58 153 0.0 0.0 0.00 0.10 0.10 92 1012.3
20260507062752 58 158 0.0 0.0 0.00 0.10 0.10 92 1012.4
20260507062249 58 194 1.0 2.0 0.00 0.10 0.10 92 1012.1
20260507061747 58 160 0.0 3.0 0.00 0.10 0.10 92 1011.9
20260507061244 58 152 0.0 1.0 0.00 0.10 0.10 92 1012.1
20260507060743 58 151 0.0 2.0 0.07 0.10 0.10 92 1012.3
20260507060239 58 132 1.0 1.0 0.07 0.10 0.10 92 1011.8
20260507055735 58 156 0.0 3.0 0.00 0.09 0.09 91 1012.0
20260507055230 58 148 0.0 2.0 0.00 0.09 0.09 91 1012.3
20260507054727 58 182 0.0 1.0 0.05 0.09 0.09 91 1012.2
20260507054224 59 168 1.0 1.0 0.05 0.09 0.09 90 1012.1
20260507053722 59 191 0.0 1.0 0.00 0.08 0.08 90 1012.2
20260507053219 59 156 0.0 0.0 0.00 0.08 0.08 90 1012.2
20260507052718 59 171 0.0 1.0 0.00 0.08 0.08 89 1012.4
20260507052214 59 177 1.0 2.0 0.00 0.08 0.08 89 1011.9
20260507051712 59 174 0.0 1.0 0.00 0.08 0.08 89 1011.8
20260507051208 59 146 0.0 1.0 0.00 0.08 0.08 89 1012.3
20260507050705 59 157 0.0 1.0 0.00 0.08 0.08 89 1012.4
20260507050202 59 166 1.0 1.0 0.00 0.08 0.08 88 1012.4
20260507045658 60 156 0.0 1.0 0.07 0.08 0.08 89 1012.2
20260507045156 60 159 0.0 1.0 0.12 0.08 0.08 88 1012.1
20260507044652 61 179 2.0 4.0 0.12 0.07 0.07 87 1013.0
20260507044149 62 158 1.0 1.0 0.19 0.06 0.06 87 1011.7
20260507043645 62 172 0.0 0.0 0.24 0.05 0.05 85 1012.3
20260507043142 63 179 0.0 0.0 0.14 0.02 0.02 83 1012.5
20260507042638 63 190 0.0 2.0 0.07 0.01 0.01 81 1012.5
20260507042132 64 138 0.0 1.0 0.00 0.00 0.00 79 1012.1
20260507041630 64 150 0.0 0.0 0.00 0.00 0.00 79 1012.0
20260507041121 64 186 0.0 1.0 0.00 0.00 0.00 78 1012.4
20260507040618 64 169 1.0 2.0 0.00 0.00 0.00 79 1012.4
20260507040115 64 177 1.0 6.0 0.00 0.00 0.00 79 1011.9
20260507035610 64 155 0.0 1.0 0.00 0.23 0.23 78 1011.9
20260507035101 65 196 0.0 1.0 0.00 0.23 0.23 76 1012.1
20260507034558 65 162 1.0 2.0 0.00 0.23 0.23 73 1011.7
20260507034056 65 218 0.0 4.0 0.00 0.23 0.23 72 1012.2
20260507033554 66 243 2.0 2.0 0.00 0.23 0.23 73 1011.8
20260507033051 66 157 0.0 1.0 0.00 0.23 0.23 74 1011.6
20260507032548 66 158 1.0 1.0 0.00 0.23 0.23 74 1011.8
20260507032044 66 151 0.0 1.0 0.00 0.23 0.23 76 1011.8
20260507031541 66 177 0.0 0.0 0.00 0.23 0.23 76 1011.6
20260507031038 66 162 0.0 1.0 0.00 0.23 0.23 76 1011.1
20260507030534 66 170 0.0 1.0 0.00 0.23 0.23 76 1011.1
20260507030032 66 159 0.0 1.0 0.00 0.23 0.23 76 1011.1
20260507025529 66 156 0.0 3.0 0.00 0.23 0.23 75 1011.3
20260507025027 67 157 0.0 1.0 0.00 0.23 0.23 76 1011.3
20260507024524 67 153 0.0 2.0 0.00 0.23 0.23 77 1011.1
20260507024021 67 170 0.0 2.0 0.00 0.23 0.23 78 1011.3
20260507023516 67 205 0.0 1.0 0.00 0.23 0.23 79 1011.3
20260507023014 67 181 0.0 2.0 0.00 0.23 0.23 80 1010.8
20260507022510 68 157 0.0 1.0 0.00 0.23 0.23 82 1010.9
20260507022006 68 153 0.0 1.0 0.00 0.23 0.23 82 1010.7
20260507021501 68 179 1.0 3.0 0.00 0.23 0.23 83 1010.9
20260507020958 69 151 1.0 3.0 0.00 0.23 0.23 82 1010.8
20260507020455 69 146 0.0 0.0 0.00 0.23 0.23 83 1010.7
20260507015952 69 173 0.0 0.0 0.00 0.23 0.23 82 1010.6
20260507015451 69 154 0.0 0.0 0.00 0.23 0.23 82 1010.5
20260507014948 69 178 0.0 0.0 0.00 0.23 0.23 82 1010.8
20260507014444 69 169 0.0 0.0 0.00 0.23 0.23 82 1010.6
20260507013940 69 162 0.0 0.0 0.00 0.23 0.23 82 1010.5
20260507013437 69 161 0.0 0.0 0.00 0.23 0.23 82 1010.7
20260507012935 69 177 0.0 0.0 0.00 0.23 0.23 82 1010.9
20260507012431 69 152 0.0 0.0 0.00 0.23 0.23 82 1010.9
20260507011928 69 143 0.0 0.0 0.00 0.23 0.23 81 1010.8
20260507011425 69 156 0.0 0.0 0.00 0.23 0.23 81 1011.0
20260507010925 69 154 0.0 0.0 0.00 0.23 0.23 81 1011.0
20260507010421 69 158 0.0 0.0 0.00 0.23 0.23 81 1011.2
20260507005918 69 156 0.0 0.0 0.00 0.23 0.23 81 1011.0
20260507005415 69 154 0.0 0.0 0.00 0.23 0.23 81 1011.0
20260507004911 69 149 0.0 0.0 0.00 0.23 0.23 81 1010.7
20260507004408 69 144 0.0 0.0 0.00 0.23 0.23 81 1010.7
20260507003906 69 169 0.0 0.0 0.00 0.23 0.23 81 1010.8
20260507003401 69 161 0.0 0.0 0.00 0.23 0.23 80 1010.4
20260507002856 69 164 0.0 0.0 0.00 0.23 0.23 80 1010.5
20260507002352 69 160 0.0 0.0 0.00 0.23 0.23 80 1010.6
20260507001850 69 156 0.0 0.0 0.00 0.23 0.23 80 1010.4
20260507001346 69 156 0.0 0.0 0.00 0.23 0.23 80 1010.4
20260507000843 69 159 0.0 0.0 0.00 0.23 0.23 79 1010.2
20260507000338 70 160 0.0 0.0 0.00 0.23 0.23 79 1010.4
20260506235835 70 159 0.0 0.0 0.00 0.23 0.23 79 1010.5
20260506235332 70 159 0.0 0.0 0.00 0.23 0.23 79 1010.2
20260506234828 70 159 0.0 0.0 0.00 0.23 0.23 79 1010.2
20260506234326 70 174 0.0 0.0 0.00 0.23 0.23 78 1010.1
20260506233823 70 161 0.0 0.0 0.00 0.23 0.23 78 1010.0
20260506233319 70 184 0.0 0.0 0.00 0.23 0.23 78 1010.0
20260506232816 70 211 0.0 1.0 0.00 0.23 0.23 78 1010.1
20260506232311 70 154 0.0 1.0 0.00 0.23 0.23 78 1009.9
20260506231809 70 192 1.0 2.0 0.00 0.23 0.23 77 1009.9
20260506231307 70 234 1.0 1.0 0.00 0.23 0.23 77 1009.8
20260506230804 70 177 0.0 1.0 0.00 0.23 0.23 77 1010.0
20260506230300 70 239 1.0 2.0 0.00 0.23 0.23 77 1010.0
20260506225756 70 170 0.0 0.0 0.00 0.23 0.23 77 1009.8
20260506225254 70 153 1.0 3.0 0.00 0.23 0.23 77 1009.7
20260506224750 70 147 0.0 1.0 0.00 0.23 0.23 77 1009.6
20260506224248 70 284 2.0 3.0 0.00 0.23 0.23 77 1009.8
20260506223744 71 147 1.0 2.0 0.00 0.23 0.23 77 1009.8
20260506223239 71 161 0.0 2.0 0.00 0.23 0.23 76 1009.9
20260506222731 71 142 1.0 2.0 0.00 0.23 0.23 76 1009.6
20260506222226 71 160 0.0 1.0 0.00 0.23 0.23 77 1009.7
20260506221724 71 171 0.0 1.0 0.00 0.23 0.23 77 1009.7
20260506221222 70 118 0.0 4.0 0.00 0.23 0.23 77 1009.8
20260506220719 71 278 2.0 2.0 0.00 0.23 0.23 76 1009.8
20260506220213 70 183 1.0 3.0 0.00 0.23 0.23 77 1009.8
20260506215710 70 139 1.0 2.0 0.00 0.23 0.23 77 1009.8
20260506215206 70 271 3.0 6.0 0.00 0.23 0.23 76 1009.8